Location: Appletree Creek
(38.7363°N, 122.6833°W)
Time: 09:45:24
(UTC+00:00)

Cosmos 1980 Rocket - Pass Details

Date: 18 September 2020
Orbit: 831 x 848 km, 71.0° (Epoch: 22 October)

Event Time Altitude Azimuth Distance (km) Brightness Sun altitude
Exits shadow 13:01:07 14° 271° (W) 2,179 3.7 -11.3°
Maximum altitude 13:03:57 20° 306° (NW) 1,866 3.6 -10.8°
Drops below altitude 10° 13:08:02 10° 353° (N) 2,469 4.7 -10.0°
Sets 13:11:11 0° 10° (N) 3,404 5.6 -9.4°
